Home   Weather   Worcester   Past weeks

Flag for USA Past Weather in Worcester, Massachusetts, USA — Yesterday and Last 2 Weeks

56 °F


Feels Like: 56 °F
Forecast: 55 / 72 °F
Wind: No wind

Location: Worcester Regional Airport

Current Time: Oct 21, 2016 at 9:10:40 AM

Latest Report: Oct 21, 2016 at 7:54 AM

Visibility: 0 mi

Pressure: 29.90 "Hg

Humidity: 97%

Dew Point: 55 °F

Location of WorcesterLocation

Past Weather in Worcester — Graph


Worcester Temperature Yesterday

Maximum temperature yesterday: 62 °F (at 1:54 PM)
Minimum temperature yesterday: 51 °F (at 6:54 AM)
Average temperature yesterday: 56 °F

High & Low Weather Summary for the Past Weeks

High74 °F (Oct 19, 12:54 PM)100% (Oct 13, 5:54 AM)30.49 "Hg (Oct 13, 5:54 AM)
Low38 °F (Oct 14, 6:54 AM)32% (Oct 6, 3:54 PM)29.83 "Hg (Oct 18, 4:54 PM)
Average55 °F70%30.16 "Hg
* Reported Oct 6 7:54 AM — Oct 21 7:54 AM, Worcester, Weather by CustomWeather, © 2016

Note: Actual official high and low records may vary slightly from our data, if they occured in-between our weather recording intervals... More about our weather records


Worcester Weather History for the Previous 24 Hours

Scroll right to see more
Time TempWeatherWind HumidityBarometerVisibility
7:54 AM
Fri, Oct 21
56 °FFog.No wind97%29.90 "Hg0 mi
6:54 AM55 °FFog.No wind96%29.91 "Hg0 mi
5:54 AM54 °FLight rain. Fog.5 mph97%29.93 "Hg0 mi
4:54 AM54 °FFog.3 mph97%29.93 "Hg0 mi
3:54 AM54 °FFog.3 mph97%29.95 "Hg0 mi
2:54 AM54 °FFog.No wind97%29.97 "Hg0 mi
1:54 AM54 °FFog.5 mph97%30.00 "Hg0 mi
12:54 AM53 °FFog.5 mph96%30.03 "Hg0 mi
11:54 PM
Thu, Oct 20
53 °FLight rain. Fog.6 mph96%30.06 "Hg0 mi
10:54 PM53 °FFog.9 mph96%30.08 "Hg4 mi
9:54 PM54 °FLow clouds.9 mph86%30.11 "Hg10 mi
8:54 PM54 °FMostly cloudy.8 mph86%30.13 "Hg10 mi
7:54 PM54 °FLow clouds.8 mph83%30.15 "Hg10 mi
6:54 PM54 °FLow clouds.7 mph86%30.17 "Hg10 mi
5:54 PM56 °FOvercast.12 mph81%30.17 "Hg10 mi
4:54 PM58 °FMostly cloudy.8 mph78%30.16 "Hg10 mi
3:54 PM60 °FPartly sunny.9 mph72%30.18 "Hg10 mi
3:01 PM61 °FMostly cloudy.10 mph67%30.19 "Hg10 mi
1:54 PM62 °FScattered clouds.9 mph62%30.19 "Hg10 mi
12:54 PM61 °FOvercast.13 mph56%30.20 "Hg10 mi
11:54 AM58 °FPartly sunny.10 mph62%30.23 "Hg10 mi
10:54 AM57 °FSunny.12 mph67%30.24 "Hg10 mi
9:54 AM56 °FSunny.12 mph72%30.25 "Hg10 mi
Weather by CustomWeather, © 2016

See weather overviewHow to use our weather pages